Regional Weather Roundup
Issued by NWS

Home | Current Version | Previous Version | Graphics & Text | Print | Product List | Glossary On
Versions: 1 2 3 4 5 6 7 8 9 10 11 12 13 14 15 16 17 18 19 20 21 22 23 24 25 26 27 28 29 30 31 32 33 34 35 36 37 38 39 40 41 42 43 44 45 46 47 48 49 50
000
ASUS43 KMPX 010401
RWRMN
WEATHER ROUNDUP FOR MINNESOTA
NATIONAL WEATHER SERVICE TWIN CITIES/CHANHASSEN MN
1100 PM CDT THU JUL 31 2014


NOTE: "FAIR" INDICATES FEW OR NO CLOUDS BELOW 12,000 FEET WITH NO
SIGNIFICANT WEATHER AND/OR OBSTRUCTIONS TO VISIBILITY. N/A MEANS
CURRENT SKY AND/OR WEATHER CONDITIONS ARE NOT AVAILABLE.

MNZ060>063-068>070-010500-
   Twin Cities Metro

CITY           SKY/WX    TMP DP  RH WIND       PRES   REMARKS
TWIN CITIES    CLEAR     74  58  57 SW3       30.01S
ST PAUL        CLEAR     69  59  70 CALM      30.01R
CRYSTAL        CLEAR     68  58  70 CALM      30.00R
BLAINE         CLEAR     66  61  82 CALM      30.01S
LAKEVILLE      CLEAR     63  59  88 CALM      30.02S
EDEN PRAIRIE   CLEAR     68  60  75 W5        30.01R
SOUTH ST PAUL  CLEAR     70  58  65 SW3       30.00S
LAKE ELMO      FAIR      63  61  94 CALM      30.02S
$$
MNZ001>005-007-008-013>017-022>024-027-028-010500-
   Northwest Minnesota

CITY           SKY/WX    TMP DP  RH WIND       PRES   REMARKS
BEMIDJI        CLEAR     59  57  93 CALM      30.01S
HALLOCK        CLEAR     64  61  88 CALM      30.00S
ROSEAU           N/A     64  57  77 CALM      30.00R
WARROAD        CLEAR     63  57  82 CALM      30.00R
THIEF RVR FALL PTCLDY    68  61  77 CALM      30.01S
CROOKSTON      CLEAR     66  63  88 CALM      30.01R
FOSSTON        CLEAR     61  55  82 CALM      30.02S
DETROIT LAKES  CLEAR     64  63  94 CALM      30.04S
MOORHEAD       CLEAR     70  64  83 CALM      30.02R
PARK RAPIDS    CLEAR     62  59  90 W5        30.03R
$$
MNZ006-009>011-018-025>026-010500-
   North Central Minnesota

CITY           SKY/WX    TMP DP  RH WIND       PRES   REMARKS
BAUDETTE       CLEAR     61  59  93 CALM      30.00S
FLAG ISLAND    CLEAR     70  63  78 CALM      29.98S
INTL FALLS     CLEAR     54  53  97 CALM      29.99S
WASKISH        CLEAR     61  57  88 CALM      30.00S
BIG FORK       CLEAR     55  54  94 CALM      30.01S
LONGVILLE      CLEAR     59  57  94 CALM      30.01S FOG
GRAND RAPIDS   CLEAR     61  57  88 CALM      30.01S
CRANE LAKE     CLEAR     54  52  94 CALM      30.02R FOG
ORR            CLEAR     57  55  94 CALM      29.98S
COOK           CLEAR     57  55  94 CALM      30.01R FOG
$$
MNZ012-019>021-037-010500-
   Northeast Minnesota

CITY           SKY/WX    TMP DP  RH WIND       PRES   REMARKS
DULUTH         CLEAR     62  57  83 CALM      30.00R
ELY            CLEAR     55  52  88 CALM      30.01S
HIBBING        CLEAR     57  55  93 CALM      30.00S
EVELETH        CLEAR     57  55  94 CALM      30.01S FOG
DULUTH HARBOR  CLEAR     68  61  77 CALM      29.98R
TWO HARBORS    CLEAR     57  54  88 CALM      29.97S
SILVER BAY     CLEAR     54  54 100 CALM      29.97S
GRAND MARAIS     N/A     57  51  80 CALM      29.95S
G MARAIS ARPRT CLEAR     52  46  82 N5        30.01S
$$
MNZ029>031-032-039>041-046>048-054>057-064-010500-
   West Central Minnesota

CITY           SKY/WX    TMP DP  RH WIND       PRES   REMARKS
FERGUS FALLS   CLEAR     68  57  68 CALM      30.02S
WHEATON        CLEAR     64  57  77 CALM      30.04S
MORRIS         CLEAR     64  61  88 W3        30.03R
ALEXANDRIA     CLEAR     67  61  81 W3        30.05R
ELBOW LAKE     FAIR      68  65  90 CALM      30.03S
WADENA         CLEAR     63  59  88 CALM      30.03R
GLENWOOD       CLEAR     64  61  88 W5        30.04S
APPLETON       CLEAR     64  61  88 CALM      30.03R
BENSON         CLEAR     61  59  94 CALM      30.03S
ORTONVILLE     CLEAR     66  57  72 CALM      30.04R
MADISON        CLEAR     64  61  88 CALM      30.04S
WILLMAR        FAIR      64  57  77 CALM      30.05S
$$
MNZ033>034-036-042>043-049>051-058-059-010500-
   Central Minnesota

CITY           SKY/WX    TMP DP  RH WIND       PRES   REMARKS
ST CLOUD       CLEAR     66  58  75 CALM      30.01R
SAUK CENTRE    FAIR      65  60  85 CALM      30.04R
PAYNESVILLE    CLEAR     59  56  90 SW3       30.04S
AITKIN           N/A     63  57  82 CALM      30.00S HAZE
PINE RIVER     CLEAR     61  61 100 CALM      30.05R
BRAINERD       CLEAR     64  61  90 CALM      30.02R
STAPLES        CLEAR     63  57  82 W2        30.02S
LONG PRAIRIE   FAIR      63  61  94 CALM      30.04R
LITTLE FALLS   CLEAR     61  59  94 CALM      30.02R
LITCHFIELD       N/A     66  63  88 CALM      30.04S
BUFFALO        CLEAR     68  58  71 CALM      30.03R
MAPLE LAKE     CLEAR     68  61  77 CALM      30.03S
$$
MNZ037-044-045-052-053-010500-
   East Central Minnesota

CITY           SKY/WX    TMP DP  RH WIND       PRES   REMARKS
PRINCETON      CLEAR     63  61  94 CALM      30.01S
MORA           PTCLDY    64  63  94 CALM      30.01S
CAMBRIDGE      CLEAR     68  57  68 CALM      29.99R
RUSH CITY      CLEAR     64  60  88 CALM      30.00R
MOOSE LAKE     FOG       61  59  94 CALM      29.98S VSB 1/2
HINCKLEY       FAIR      63  63 100 CALM      29.99S
CLOQUET        CLEAR     59  55  88 CALM      30.00S
MCGREGOR       CLEAR     63  61  94 CALM      30.01S
$$
MNZ071>073-080-081-089-090-097-098-010500-
   Southwest Minnesota

CITY           SKY/WX    TMP DP  RH WIND       PRES   REMARKS
MONTEVIDEO     CLEAR     66  55  68 CALM      30.04S
GRANITE FALLS  CLEAR     62  59  89 CALM      30.05S
CANBY          CLEAR     61  58  90 SW3       30.05S
MARSHALL       CLEAR     64  57  77 SW5         N/A
REDWOOD FALLS  CLEAR     67  58  72 CALM      30.03S
OLIVIA         CLEAR     64  59  82 CALM      30.03S
PIPESTONE      CLEAR     66  57  72 CALM      30.07S
WINDOM         CLEAR     61  57  88 CALM      30.06S
WORTHINGTON    PTCLDY    68  61  77 CALM      30.08S
JACKSON        CLEAR     64  61  88 S6        30.07S
TRACY          CLEAR     65  58  77 SW3       30.06S
SLAYTON        CLEAR     63  59  85 CALM      30.08R
$$
MNZ065>067-074>077-082>085-091>093-010500-
   South Central Minnesota

CITY           SKY/WX    TMP DP  RH WIND       PRES   REMARKS
MANKATO        CLEAR     66  54  63 SW3       30.04R
NEW ULM        CLEAR     64  61  88 CALM      30.04R
ST JAMES       CLEAR     63  57  82 CALM      30.06R
FAIRMONT       PTCLDY    66  57  72 CALM      30.05S
GLENCOE        CLEAR     66  59  77 CALM      30.03R
FARIBAULT      CLEAR     63  55  77 CALM      30.04S
OWATONNA       CLEAR     61  55  82 CALM      30.04S
WASECA         CLEAR     59  54  82 CALM      30.06S
ALBERT LEA     CLEAR     63  61  94 CALM      30.05S
$$
MNZ078>079-086>088-094>096-010500-
   Southeast Minnesota

CITY           SKY/WX    TMP DP  RH WIND       PRES   REMARKS
ROCHESTER      CLEAR     63  57  81 W7        30.06R
RED WING       CLEAR     63  61  94 CALM      30.00S
STANTON        CLEAR     64  58  82 S5        30.01R
DODGE CENTER   CLEAR     63  57  82 SW3       30.05S
WINONA         CLEAR     66  63  88 CALM      30.02S
AUSTIN         CLEAR     63  57  82 CALM      30.05S
PRESTON        CLEAR     64  61  89 W5        30.06R
$$
ABBREVIATIONS USED IN REMARKS
   TC - TEMPERATURES IN CELSIUS
  WCI - WIND CHILL INDEX
   HX - HEAT INDEX
  VSB - VISIBILITY
$$


USA.gov is the U.S. government's official web portal to all federal, state and local government web resources and services.